www.pogodaiklimat.ru

Погода и климат >> Архив погоды >> Россия >> Якутия >> Токо


ПОГОДА в Токо

  • Прогноз погоды в Токо
  • Монитор погоды в Токо
  • Климат города

АРХИВ ПОГОДЫ в Токо

Время (UTC), дата Ветер
(напр.,м/с)
 
Видим.   Явления Облачность Т
(С)
Тd
(С)
f
(%)
Тe
(С)
Тes
(С)
Комфортность P
(гПа)
Po
(гПа)
Тmin
(С)
Tmax
(С)
R
(мм)
R24
(мм)
S
(см)
06 9.07 ЮВ 2 50 км 9/1 600 м
[Cu hum Ac trans Ci fib]
+27.8 +8.1 29 +28 +33 жарко 1007.9 916.4
12 9.07 В 1 50 км 8/1 600 м
[Sc Ac trans Ci sp]
+23.2 +6.5 34 +24 +24 комфорт 1007.8 914.9 +28.5
18 9.07 штиль 0 50 км 4/0
[Ac trans]
+3.9 +2.4 90 +3 +3 1015.5 915.6
00 10.07 СЗ 1 50 км 8/1 600 м
[Sc Ci]
+15.5 +9.3 67 +16 +25 1010.1 914.7 +2.8
06 10.07 С 2 50 км в посл. час ливневой дождь 9/9 600 м
[Cb cap]
+19.1 +13.5 70 +21 +22 комфорт 1006.6 912.8
12 10.07 Ю 2 50 км 8/1 600 м
[Sc Ac trans Ci fib]
+18.2 +10.2 60 +19 +19 1006.0 911.9 +23.7 0.5
18 10.07 штиль 0 50 км 3/3 600 м
[Sc]
+2.5 +1.2 91 +1 +1 1012.8 912.7
00 11.07 СЗ 3 50 км 8/4 600 м
[Sc Ac trans Ci]
+18.2 +11.4 64 +19 +22 1006.9 912.7 +2.1
06 11.07 Ю 1 50 км 8/8 600 м
[Cu med, cong]
+25.1 +12.2 45 +27 +29 жарко 1002.5 910.8
12 11.07 СВ 1 50 км 9/6 600 м
[Sc Ac trans]
+19.6 +12.1 62 +22 +22 комфорт 1004.6 911.1 +26.3
18 11.07 В 1 50 км 9/9 600 м
[Sc]
+9.1 +7.7 91 +8 +8 1009.2 911.8
00 12.07 СЗ 2 50 км 9/3 600 м
[Sc Ac trans Ci fib]
+16.8 +12.1 74 +17 +21 1005.0 910.6 +2.7
06 12.07 С 1 50 км 8/6 600 м
[Cu med, cong Ci sp]
+25.8 +12.5 44 +28 +32 жарко 998.3 907.3
12 12.07 штиль 0 50 км 8/0
[Ci]
+24.6 +12.9 48 +27 +27 жарко 996.4 995.2 +27.2
18 12.07 ЮВ 1 50 км 4/0
[Ac trans]
+6.3 +5.2 93 +5 +5 1003.3 905.5
00 13.07 штиль 0 10 км слабый ливневой дождь 10/8 600 м
[Cb cap Ac und]
+15.3 +13.9 91 +15 +16 998.6 904.4 +5.9 0.8
06 13.07 ЮВ 3 50 км {ливн. осадки} 9/9 600 м
[Sc]
+22.9 +14.7 60 +27 +28 душно 994.7 903.2
12 13.07 ЮВ 1 50 км 9/6 600 м
[Sc Ac trans Ci]
+19.1 +12.1 64 +21 +21 комфорт 996.0 903.1 +25.2 0.4
18 13.07 штиль 0 50 км 8/8 600 м
[Sc]
+8.5 +7.7 95 +8 +8 999.2 902.6
00 14.07 З 1 50 км 9/9 600 м
[Sc]
+13.8 +12.3 91 +14 +15 999.3 904.5 +4.5
06 14.07 В 3 50 км 9/9 600 м
[Sc]
+22.4 +12.4 53 +25 +26 комфорт 997.4 905.4
12 14.07 Ю 2 50 км 8/1 600 м
[Sc Ci]
+18.3 +11.3 64 +19 +19 999.2 905.8 +24.9
18 14.07 штиль 0 50 км 6/6 600 м
[Sc]
+9.0 +8.0 93 +8 +8 1003.9 907.1
00 15.07 штиль 0 50 км 9/0
[Ci]
+16.3 +11.1 71 +16 +26 1002.2 907.9 +2.8
06 15.07 СВ 2 50 км 9/9 600 м
[Sc]
+21.4 +12.4 56 +24 +25 комфорт 1000.1 907.5
12 15.07 В 1 50 км 9/9 600 м
[Sc]
+17.5 +13.6 78 +19 +19 1002.8 908.9 +24.1
18 15.07 штиль 0 50 км 9/9 600 м
[Sc]
+7.4 +6.2 92 +6 +6 1008.0 910.2
00 16.07 СВ 1 50 км {ливн. осадки} 10/10 600 м
[Sc]
+14.2 +12.9 92 +14 +14 1007.3 911.9 +6.8 0.7

 

Местоположение метеостанции Токо (Якутия, Россия): широта 56.28 долгота 131.10 высота над уровнем моря 850 м.

В архиве по умолчанию представлена погода в Токо за последнюю неделю. Архивные данные за месяц целиком и за предыдущие месяцы, начиная с января 2011 года, Вы можете получить, выбрав интересующий диапазон дат из раскрывающегося списка и нажав кнопку "Ввод!".


*Определитесь, кто Вы:
робот инопланетянин человек

Внимание! Время в таблицах - всемирное. Для получения местного времени необходимо прибавить поправку, которая в Токо равна 10 ч.

Смотрите также архив погоды в соседних городах и на ближайших метеорологических станциях:

Погода в Чюльбю (Якутия, Россия) (166 км)
Погода в Локшаке (Амурская область, Россия) (178 км)
Погода в Бомнаке (Амурская область, Россия) (226 км)
Погода в Джане (Хабаровский край, Россия) (238 км)
Погода в Учуре (Якутия, Россия) (274 км)
Погода в Удском (Хабаровский край, Россия) (287 км)
Погода в Угино (Якутия, Россия) (304 км)
Погода в Береговом (Амурская область, Россия) (315 км)
Погода в Чумикане (Хабаровский край, Россия) (316 км)
Погода в Дугде (Амурская область, Россия) (333 км)

Пояснения к столбцам:

Ветер - указаны скорость ветра в м/с - средняя за 10 мин, порывы в срок и между сроками (в фигурных скобках) и направление, откуда дует ветер: С - северный, СВ - северо-восточный, В - восточный, ЮВ - юго-восточный, Ю - южный, ЮЗ - юго-западный, З - западный, СЗ - северо-западный.
Видимость - горизонтальная дальность видимости в метрах или километрах. При видимости от 1 до 10 км при отсутствии осадков обычно наблюдается дымка, при ухудшении видимости до 1 км и менее - туман. В сухую погоду видимость может ухудшаться дымом, пылью или мглою.
Явления - указаны атмосферные явления, наблюдавшиеся в срок или в последний час перед сроком; фигурными скобками обозначены явления, наблюдавшиеся между сроками (за 1-3 часа до срока); квадратными скобками обозначены град или гололедные отложения с указанием их диаметра в мм.
Облачность - указаны через наклонную черту общая и нижняя облачность в баллах и высота нижней границы облаков в метрах; квадратными скобками обозначены формы облаков: Ci - перистые, Cs - перисто-слоистые, Cc - перисто-кучевые, Ac - высококучевые, As - высокослоистые, Sc - слоисто-кучевые, Ns - слоисто-дождевые, Cu - кучевые, Cb - кучево-дождевые. Подробнее классификацию облаков см. в Атласе облаков (PDF).
T - Температура воздуха - температура, измеренная на высоте 2 м над землей.
Td - Температура точки росы - температура, при понижении до которой содержащийся в воздухе водяной пар достигнет насыщения.
f - Относительная влажность воздуха - влажноcть воздуха, измеренная на высоте 2 м над землей.
Te - Эффективная температура - температура, которую ощущает одетый по сезону человек в тени. Характеристика душности погоды. При расчете учитывается влияние влажности воздуха и скорости ветра на теплоощущения человека.
Tes - Эффективная температура на солнце - температура, которую ощущает человек, с поправкой на солнечный нагрев. Характеристика знойности погоды. Зависит от высоты солнца над горизонтом, облачности и скорости ветра. Ночью, в пасмурную погоду, а также при ветре 12 м/с и более поправка равна нулю.
P - Атмосферное давление - приведенное к уровню моря атмосферное давление.
Po - Атмосферное давление - измеренное на уровне метеостанции атмосферное давление.
Tmin - Минимальная температура - минимум температуры воздуха на высоте 2 м над землей.
Tmax - Максимальная температура - максимум температуры воздуха на высоте 2 м над землей.
R - Количество осадков - Количество выпавших осадков за период времени, мм. При наведении курсора мыши на число - период времени, за который выпало указанное количество осадков.
R24 - Количество осадков - Количество выпавших осадков за 24 часа, мм.
S - Снежный покров - Высота снежного покрова, см. При наведении курсора мыши на число - состояние снежного покрова и степень покрытия местности в баллах.